Tracking 25195 objects as of 20-Jan-2022
HD Live streaming from Space Station
objects crossing your sky now

STARLINK-1739

Track STARLINK-1739 now!
10-day predictions
STARLINK-1739 is classified as:


NORAD ID: 46363
Int'l Code: 2020-062AQ
Perigee: 553.3 km
Apogee: 555.5 km
Inclination: 53.1 °
Period: 95.6 minutes
Semi major axis: 6925 km
RCS: Unknown
Launch date: September 3, 2020
Source: United States (US)
Launch site: AIR FORCE EASTERN TEST RANGE (AFETR)
aabbcc
Your satellite tracking list
Your tracking list is empty




NASA's NSSDC Master Catalog

Two Line Element Set (TLE):
1 46363U 20062AQ  22019.91427205  .00002892  00000-0  21303-3 0  9999
2 46363  53.0540 269.2589 0001612  62.0873 298.0279 15.06383749 77386
Source of the keplerian elements: AFSPC